CAPE
0 0 0 15 9 3 0 3 137 37 60 14 40 120 340 361 511 356 778 784 643 710 909 1353 1625 1518 1415 1586 1648 1114 1049 1061 1353 1079 1326 1868 1871 1907 1860 1987 1897 1834 2026 1814 1874 1866 1898 1969 1572
0 0 2 43 66 0 2 0 260 70 29 9 214 246 147 110 161 674 704 571 533 321 282 582 1276 1930 1709 1599 1394 1766 1758 1610 1544 1426 1357 1312 1849 1549 1749 1902 1932 1895 1835 1782 2003 1966 1974 1837 1740
0 13 10 37 38 31 23 98 105 72 9 99 302 1 62 48 177 620 502 517 204 242 433 866 1182 1819 1687 1828 1703 1751 1634 1527 1646 1576 1504 1398 1645 1645 1772 1902 1896 1858 1714 1623 1934 2033 1662 1514 1383
9 13 30 187 50 1 43 102 58 32 87 158 39 0 7 105 211 393 504 349 287 352 657 1180 1261 1746 1644 1640 1672 1647 1594 1642 1547 1478 1658 1691 1636 1752 1855 1766 1876 1965 1656 1600 1300 1832 1855 1349 1396
1 10 80 17 24 13 32 69 63 42 150 80 0 0 41 120 138 221 272 506 639 409 529 1237 1341 1692 1618 1572 1495 1446 1417 1422 1488 1358 1466 1596 1658 1685 1857 1923 1932 1763 1661 1729 1613 1933 1627 1554 1542
0 41 134 38 0 44 84 136 84 114 217 13 0 1 22 68 100 255 310 558 808 520 644 1024 1407 1519 1517 1597 1574 1372 1293 1447 1515 1545 1537 1558 1593 1674 1751 1773 1710 1565 1657 1658 2072 1863 1645 1468 1276
2 226 176 106 72 91 155 348 144 106 196 100 10 0 15 61 94 202 400 369 197 479 593 714 1143 1518 1651 1581 1428 1321 1535 1438 1367 1200 1382 1078 1152 1595 1694 1732 1564 1531 1671 1841 1967 1730 1535 1109 817
291 303 204 127 108 36 345 315 465 334 246 137 14 0 0 53 108 138 132 271 427 273 444 633 1013 1067 855 1250 1377 1315 1265 1415 1069 1365 1279 1287 1040 1315 1535 1585 1553 1595 1575 1618 1866 1652 991 478 670
240 301 242 197 161 346 411 187 332 607 228 332 122 0 0 13 174 127 78 227 209 411 536 666 862 841 942 1023 1271 1241 1150 862 928 1043 651 940 1117 1014 1108 1283 1517 1535 1413 1433 1729 1445 1369 1293 925
235 273 399 306 229 268 151 112 83 189 217 231 1 5 0 30 206 175 89 137 223 518 529 765 702 821 763 382 992 945 781 938 942 915 706 479 868 531 812 1401 1554 1401 1300 1434 1604 1108 358 1486 1269
571 274 533 421 339 178 124 48 48 180 312 61 0 0 0 27 114 41 108 43 115 331 763 704 891 933 586 675 927 720 528 834 809 915 872 885 41 251 857 1143 1354 1381 1310 1462 1369 1764 1644 1639 1878
324 432 673 523 236 63 27 27 30 82 344 75 18 1 0 6 46 160 179 142 337 497 711 311 616 440 745 725 891 528 707 300 536 496 161 448 895 780 1043 1225 1302 751 1020 71 1003 1626 1790 865 615
609 269 479 493 282 116 41 51 14 79 73 110 38 5 0 3 30 78 83 64 471 632 467 206 439 84 880 477 809 501 453 452 13 210 291 852 480 968 991 316 715 950 1412 750 529 768 892 1004 1302
339 291 39 101 534 307 124 228 218 296 116 266 49 7 5 3 26 49 63 47 47 366 252 256 581 255 657 963 216 133 218 269 571 414 465 961 847 1315 601 817 995 939 1570 1318 0 893 1442 710 991
287 446 21 70 640 567 374 305 278 432 475 236 48 12 10 19 12 37 52 24 33 150 315 309 85 492 950 443 192 702 439 636 596 484 999 920 1284 1180 644 62 488 1164 1547 1835 1098 1563 1069 1072 1021
414 269 62 59 435 505 385 234 285 286 396 154 31 17 13 23 9 25 16 21 13 156 199 269 7 555 298 183 737 210 244 542 706 888 788 1448 1219 1274 1563 910 482 1180 383 1122 676 1253 739 719 924
261 161 113 105 304 462 430 116 327 196 145 94 24 20 17 13 14 22 6 4 5 153 175 273 38 376 506 225 1034 403 74 421 519 841 787 1215 1209 1323 1435 1140 689 1771 794 906 865 828 752 886 503
21 38 38 107 328 479 481 209 130 284 107 66 27 19 31 22 20 4 1 6 0 32 166 296 51 441 822 527 978 738 633 583 676 893 1171 1446 1409 1456 1464 1544 1095 328 1299 960 743 796 474 707 189
33 57 124 39 37 443 581 471 153 459 178 99 22 32 38 42 23 2 7 5 7 4 191 361 241 431 801 601 612 337 445 813 1027 1316 1654 1180 1148 1483 1565 1554 1154 354 760 837 1595 1334 1301 815 826
3 4 73 16 28 165 518 398 476 365 183 79 61 40 50 41 24 15 15 14 8 8 169 390 448 194 810 301 481 646 815 768 924 1051 1253 1448 1440 1330 1468 1157 1312 928 949 1434 1312 407 1332 539 521
0 8 30 44 0 0 9 248 0 326 230 129 46 54 50 21 38 93 34 31 22 30 113 382 639 290 500 502 474 886 828 897 963 956 1255 1186 1390 1531 1375 1570 1400 1107 442 1109 1315 1418 327 561 540
0 0 3 110 102 34 16 127 338 333 199 141 38 54 71 5 72 186 88 75 32 3 77 374 967 495 577 920 393 583 534 590 536 826 1317 1279 1168 1389 1317 1486 1609 1096 504 222 1108 1002 1127 1051 849
0 12 0 4 1 0 13 66 266 378 350 1 0 36 42 84 99 154 196 132 12 0 16 360 837 692 487 933 750 413 374 638 303 1148 841 1286 1361 1544 1181 1551 1536 1436 1278 757 1454 1131 1116 1332 1225
0 2 33 30 0 0 51 44 167 123 18 88 46 125 12 44 194 188 207 180 48 3 10 363 721 953 995 504 630 770 805 405 179 302 406 926 1179 1332 1411 1631 1665 1463 519 68 1681 1396 1435 1480 1748
0 0 19 30 9 1 0 35 88 0 16 107 168 95 39 21 110 219 312 183 171 4 73 581 945 1083 1082 445 850 1469 1156 1005 1002 662 381 959 267 740 1198 1414 1588 1586 1169 1183 1520 1641 1505 1975 908
0 0 32 9 4 4 0 60 92 0 64 381 311 361 10 33 41 195 349 317 314 6 66 460 1103 1241 1047 1078 1105 1128 970 1175 899 1166 1172 178 395 605 1413 1343 1727 1688 1434 1610 1595 1871 1278 1490 983
1 0 24 37 15 6 164 144 144 81 120 133 221 544 480 675 524 309 438 351 376 131 141 329 909 1318 1596 1459 1575 1876 1787 1444 368 346 821 710 1112 502 1101 934 1478 1337 1540 1448 1525 1304 1527 1595 1620
9 0 0 0 0 13 258 219 144 170 115 20 34 48 3 37 325 317 176 136 577 224 233 656 988 1301 1522 1517 1762 1908 2049 1789 1569 1680 963 1351 1526 573 516 604 978 1372 1600 1544 1527 1643 1204 1519 1559
0 0 0 0 0 4 228 119 168 87 51 4 4 4 3 3 21 119 58 1 299 401 226 496 1320 1372 1707 1755 1771 1675 1833 2022 2015 1667 1493 930 1169 1167 425 0 370 1350 1449 1461 1500 1109 1166 1340 1095
0 0 0 0 0 0 1 74 27 41 12 3 3 5 6 2 0 3 5 31 8 11 345 327 337 1031 1424 1697 1787 1803 1912 1685 1893 1853 1767 1597 1228 1254 1210 1372 1519 1599 1495 1526 1459 1491 1175 1222 1409
CIN
0 0 0 -20 -2 -25 -12 -32 -20 -11 -4 -15 -10 -18 -24 -19 -12 -40 -3 -3 -12 -20 -25 -1 -1 -2 -1 0 -1 -13 -14 -9 -2 -13 -3 0 0 0 0 0 -1 -1 0 0 0 0 0 0 0
0 0 -3 -4 -1 0 -37 0 -10 -21 -6 -13 -14 -33 -31 -68 -119 -22 -6 -1 -8 -41 -60 -47 -8 0 0 0 -6 0 0 0 -1 -5 -3 -3 0 -1 -1 0 0 -1 0 0 0 0 0 0 -4
0 -3 -5 -3 -7 -1 -22 -37 -28 -7 -11 -6 -12 -10 -27 -41 -5 -9 -17 -3 -23 -17 -32 -31 -8 0 0 0 0 0 0 0 0 0 -1 0 0 0 0 0 0 0 -3 -3 0 0 -1 -3 -14
-4 -5 -3 -2 -2 -13 -14 -21 -5 -2 -7 -37 -63 -1 -3 -18 -2 -4 -3 -27 -20 -24 -35 -12 -3 0 0 0 0 0 0 0 -1 0 0 -1 -1 0 0 0 0 0 -7 -7 -28 0 0 -12 -17
-4 -6 -106 -16 -3 -54 -32 -10 -5 -5 -13 -9 0 -1 -22 -8 -4 -3 -4 -18 -16 -36 -49 0 -2 0 0 0 0 0 0 0 0 0 -1 0 0 0 0 0 0 -2 -14 -1 -13 -1 -2 -13 -20
0 -10 -3 -7 -1 -26 -8 -10 -10 -7 -25 -22 0 -1 -58 -39 -20 -3 -9 -10 -21 -11 -20 -1 -1 0 0 0 0 0 0 0 0 0 0 0 0 0 0 0 0 -5 -4 -4 -1 -3 -21 -26 -32
-27 0 -3 0 0 -1 -8 -29 -13 -11 -10 -12 -26 0 -2 -71 -45 -4 -4 -30 -6 -20 -19 -11 -1 0 0 0 0 0 0 0 -4 -16 -8 -12 -2 0 0 0 -2 -3 -6 -8 -15 -28 -40 -57 -72
-3 -5 -5 -2 -2 -24 -6 -20 -41 -3 -16 -15 -6 0 0 -82 -58 -9 -33 -46 -27 -7 -15 -15 -8 0 -13 0 0 0 -4 -6 -19 -7 -11 -13 -9 0 -4 -3 -7 -8 -17 -30 -29 -41 -80 -99 -80
-5 -16 -4 -10 -8 -2 -10 -36 -49 -27 -8 -3 -10 0 0 -2 -41 -17 -28 -28 -28 -9 -18 -5 -10 -15 -9 -9 0 -2 -9 -31 -31 -21 -11 -3 -10 -5 -2 -13 -15 -30 -41 -43 -29 -33 -54 -63 -71
-24 -10 -4 -9 -32 -44 -9 -40 -83 -29 -3 -2 -3 -2 0 -3 -43 -37 -27 -15 -3 -16 -19 -22 -30 -27 -8 -13 -9 -12 -30 -18 -11 -5 -27 -39 -4 -20 -25 -27 -27 -37 -44 -35 -27 -33 -124 -54 -42
-14 -3 -5 -16 -14 -54 -53 -56 -76 -11 -2 -6 0 0 0 -2 -42 -16 -23 -18 -6 -35 -25 -3 -22 -10 -3 -18 -1 -21 -46 -30 -10 -6 -16 -20 -58 -52 -44 -46 -29 -26 -39 -18 -29 -53 -68 -52 -34
-22 -4 -2 -2 -15 -61 -47 -91 -57 -37 -14 -3 -29 -40 0 -1 -3 -18 -17 -7 -35 -25 -17 -23 -37 -24 -18 -32 -13 -53 -37 -11 -6 -4 -25 -26 -11 -7 -14 -8 -10 -41 -61 -228 -32 -16 -8 -8 -4
-18 -7 -2 -17 -10 -27 -30 -22 -84 -55 -165 -4 -6 -20 0 -2 -2 -3 -4 -9 -25 -24 -31 -22 -27 -46 -7 -28 -13 -28 -10 -5 -12 -26 -14 -12 -19 -6 -21 -101 -33 -26 -13 -60 -65 -33 -24 -20 -8
-7 -8 -21 -36 -11 -5 -3 -8 -19 -34 -66 -9 -9 -19 -2 -2 -3 -1 -3 -5 -5 -21 -10 -5 -6 -16 -14 -9 -17 -11 -9 -16 -4 -7 -21 -15 -14 -5 -31 -35 -31 -14 -7 -26 0 -27 -15 -17 -6
-16 -20 -16 -22 -6 -3 -2 -2 -4 -2 -16 -8 -4 -3 -3 -2 -2 -3 -2 -3 -3 -5 -14 -12 -9 -4 -12 -11 -16 -10 -28 -18 -11 -24 -1 -8 -7 -13 -43 -62 -49 -20 -10 -4 -38 -18 -14 -13 -13
-16 -5 -1 -9 -5 -12 -19 -5 -4 -19 -1 -2 -11 -2 -3 -1 -3 -2 -2 -2 -4 -5 -11 -7 -1 -5 -8 -19 -7 -23 -51 -36 -10 -14 -14 -2 -6 -5 -5 -42 -19 -19 -33 -28 -40 -13 -15 -17 -17
-4 -4 -8 -3 -8 -12 -5 -6 -15 -31 -24 -7 -13 -3 -3 -3 -2 -2 -4 -2 -3 -10 -9 -5 -16 -3 -3 -12 -3 -35 -89 -47 -6 -7 -9 -8 -11 -12 -7 -10 -15 -11 -45 -24 -17 -18 -21 -12 -20
-14 -12 -29 -6 -5 -9 -6 -56 -129 -12 -28 -10 -20 -5 -3 -3 -1 -3 -2 -2 0 -8 -8 -3 -16 -4 -7 -8 -4 -8 -31 -23 -9 -17 -8 -3 -4 -6 -15 -6 -11 -44 -16 -15 -22 -19 -27 -20 -66
-4 -7 -22 -54 -64 -10 -3 -42 -67 -3 -2 -2 -15 -7 -3 -4 -3 -1 -3 -4 -3 -4 -2 -1 -7 -7 -6 -6 -4 -22 -12 -15 -15 -17 -1 -14 -14 -2 -7 -4 -10 -32 -29 -10 -3 -18 -13 -8 -16
-20 -28 -3 -56 -82 -133 -30 -4 -6 -3 -3 -12 -4 -6 -5 -2 -4 -4 -4 -4 -2 -4 -4 -4 -10 -17 -3 -19 -15 -4 -5 -12 -15 -12 -8 -7 -7 -9 -4 -14 -7 -29 -22 -4 -13 -34 -14 -15 -21
0 -6 -50 -45 -4 0 -72 -22 0 -4 -11 -27 -31 -36 -11 -4 -14 -4 -4 -2 -4 -6 -5 -4 -9 -28 -8 -7 -11 -8 -11 -12 -18 -13 -13 -4 -3 -3 -13 -2 -20 -28 -37 -16 -9 -5 -27 -15 -19
0 -2 -15 -8 -13 -62 -225 -18 -9 -1 -42 -16 -36 -62 -52 -5 -5 -6 -10 -1 -6 -6 -12 -4 -2 -23 -17 -6 -7 -5 -7 -6 -14 -19 -12 -9 -1 -1 -4 -5 -3 -9 -23 -41 -14 -10 -15 -20 -10
0 -9 0 -4 -7 0 -5 -4 -25 -4 0 -22 -8 -69 -48 -63 -8 -13 -7 -6 -12 0 -22 -4 -2 -16 -14 -7 -4 -8 -15 -21 -42 -28 -26 -18 -4 -2 -7 -1 -1 -3 -25 -42 -8 -7 -8 -20 -20
0 -10 -2 -4 -1 0 -6 -7 -49 -63 -70 -33 -61 -92 -153 -113 -5 -11 -10 -18 -11 -28 -11 -14 -6 -6 -5 -18 -14 -20 -4 -33 -61 -38 -29 -20 -23 -6 -2 -1 -2 -8 -36 -72 -8 -7 -14 -19 -14
0 0 -5 -4 -4 -1 0 -3 -112 0 -44 -45 -11 -77 -55 -20 -46 -19 -5 -7 -10 -21 -25 -16 -14 -8 -12 -28 -16 -13 -7 -9 -2 -24 -31 -16 -30 -40 -3 -20 -16 -11 -21 -30 -4 -7 -16 -15 -24
0 0 -4 -5 -4 -5 0 -11 -60 0 -177 -5 -1 -35 -123 -85 -89 -59 -4 -13 -10 -18 -26 -21 -23 -27 -30 -26 -25 -21 -23 -14 -13 -4 -5 -33 -46 -41 -6 -11 -15 -9 -4 -4 -5 -7 -13 -6 -18
-1 0 -7 -6 -5 -6 -42 -76 -5 -42 -189 -205 -99 -26 -19 -7 -28 -47 -7 -21 -7 -14 -21 -29 -34 -33 -24 -22 -12 -3 -16 -21 -33 -22 -7 -9 -18 -44 -45 -39 -3 -11 -2 -4 -8 -11 -14 -4 -7
-16 0 -2 0 -1 -11 -44 -85 -44 -85 -293 -364 -302 -224 0 -125 -52 -89 -71 -93 -10 -8 -14 -9 -35 -35 -36 -23 -14 -8 -5 -17 -16 -7 -6 -3 -16 -54 -76 -69 -30 -5 -2 -3 -4 -12 -6 -5 -8
0 0 0 0 0 -29 -4 -14 -6 -59 -277 -22 0 0 0 0 -234 -166 -261 -212 -112 -57 -29 -3 -17 -27 -20 -15 -12 -15 -19 -7 -7 -12 -11 -16 -15 -24 -65 0 -81 -6 -3 -7 -8 -14 -14 -7 -15
0 0 0 0 0 -1 -126 -7 -76 -164 -314 0 0 0 0 0 0 0 -93 -175 -136 -71 -111 -85 -50 -6 -12 -10 -11 -6 -2 -6 -6 -16 -17 -24 -32 -27 -15 -8 -5 -6 -7 -7 -6 -9 -8 -12 -14
Wind_Speed
19 20 17 13 12 14 14 16 9 23 27 21 18 16 15 10 22 26 32 30 31 30 29 29 21 19 18 17 16 12 11 13 15 15 16 17 19 21 22 21 22 21 22 22 22 23 21 20 19
20 18 14 12 11 12 6 18 10 26 21 20 19 14 13 20 27 31 31 31 30 31 29 28 26 23 22 20 23 17 15 15 16 19 17 18 19 21 23 24 25 25 24 23 22 21 20 19 7
21 19 12 12 11 15 3 3 27 27 22 22 20 14 21 29 33 29 33 35 31 29 26 27 27 25 24 22 21 19 18 17 15 16 20 21 21 23 23 23 25 26 28 29 27 20 10 11 20
18 15 10 8 21 15 17 29 29 28 20 20 23 24 27 25 29 32 35 27 26 27 27 28 27 25 25 22 21 20 16 16 16 19 19 19 21 23 24 25 27 27 29 27 27 23 18 15 27
17 13 9 17 18 17 25 28 9 28 14 18 26 30 26 24 30 31 28 29 31 27 27 28 27 27 27 26 25 23 1 10 9 12 14 17 25 26 26 27 27 28 30 31 31 30 27 26 26
15 12 6 21 23 27 7 4 13 16 18 23 30 27 26 28 32 27 26 30 28 28 26 27 28 28 27 28 26 24 24 23 24 21 24 24 26 27 28 28 27 30 31 31 29 28 28 26 25
16 14 14 20 26 26 5 7 5 12 25 24 25 29 27 32 28 27 28 22 29 27 27 28 28 28 27 27 26 26 25 26 26 26 26 27 26 28 29 29 30 30 31 30 29 29 28 27 26
18 14 14 20 24 4 13 3 16 9 13 28 24 30 32 30 28 15 16 29 28 30 28 27 28 28 28 27 26 26 27 27 28 27 27 29 29 29 30 31 31 31 31 30 30 29 29 29 28
17 16 14 10 20 18 15 8 13 18 29 22 23 29 25 31 23 12 25 17 30 24 26 25 25 28 28 29 27 23 24 28 29 28 28 28 30 30 29 31 30 30 30 29 29 29 25 21 24
15 15 15 11 17 19 19 3 10 6 20 24 27 26 26 28 22 19 15 29 23 24 15 24 27 28 30 29 29 28 26 24 23 26 26 25 29 30 31 29 29 29 27 26 26 28 23 21 21
15 14 13 13 16 19 20 4 4 5 8 23 28 28 32 28 25 20 22 30 26 25 25 25 27 28 28 26 29 28 28 25 23 22 27 25 31 31 29 28 28 19 21 19 20 23 21 19 18
16 13 13 14 17 18 19 2 7 13 14 17 25 27 27 29 24 22 27 29 16 13 17 20 13 26 26 27 28 28 29 27 26 20 30 26 25 19 24 22 23 27 26 13 18 20 22 18 10
12 11 11 14 16 17 17 15 11 23 15 8 25 27 26 26 23 18 16 17 20 20 17 20 22 28 19 21 25 27 27 27 28 23 19 25 25 19 24 19 15 19 23 22 20 23 15 14 9
12 11 8 9 10 14 15 15 18 14 29 30 26 27 28 25 15 12 10 10 9 17 21 16 10 3 5 12 15 20 26 25 27 25 23 24 27 4 8 18 19 20 23 23 19 15 20 18 16
16 12 2 5 10 9 9 9 6 4 21 26 28 28 28 27 16 12 9 7 6 10 11 15 15 11 6 11 20 14 5 11 18 23 20 25 21 23 26 21 20 19 17 14 11 17 19 16 20
22 18 15 1 6 4 5 7 8 17 20 22 24 28 27 25 16 12 9 7 7 4 8 17 20 17 19 22 7 13 10 16 22 23 23 19 18 22 20 21 20 10 13 17 21 18 19 21 21
22 20 10 14 3 6 7 6 6 1 15 22 24 24 25 23 17 8 9 8 6 5 7 3 12 17 18 23 10 18 21 21 18 20 21 20 20 18 16 20 21 13 17 18 16 15 15 15 11
17 28 10 6 4 4 4 2 7 20 16 20 27 23 23 22 21 7 6 9 8 5 5 1 8 10 13 22 15 12 14 21 19 19 20 19 20 20 16 16 12 14 11 22 20 19 19 18 21
32 22 16 23 24 4 7 2 3 16 15 17 20 28 25 22 18 14 7 8 8 5 7 1 6 6 7 21 16 21 16 17 15 18 19 18 19 19 19 16 22 15 16 17 17 17 16 14 18
39 28 18 13 20 13 7 2 4 4 3 5 15 16 13 17 17 19 10 8 9 8 5 4 5 9 16 26 26 8 9 16 15 16 16 18 17 19 20 18 15 19 19 17 15 19 13 13 9
42 35 19 23 13 18 30 17 12 6 4 9 8 27 24 11 14 17 17 8 8 9 7 6 5 11 27 25 25 9 8 12 11 15 16 17 17 19 16 19 13 19 19 17 19 17 13 11 14
40 33 8 13 10 23 29 19 10 7 4 5 8 17 32 16 14 20 19 7 8 8 8 8 6 10 27 28 24 19 11 11 13 16 13 16 18 19 20 18 19 13 8 21 19 18 15 14 12
36 32 11 30 17 21 17 27 15 6 7 7 7 15 30 37 22 22 21 19 8 7 8 9 7 9 17 27 14 12 17 10 14 8 11 18 19 4 21 16 13 17 13 20 20 17 16 12 12
36 35 22 23 27 29 20 29 19 17 20 7 10 12 36 47 34 31 26 19 8 9 8 9 9 8 9 13 1 19 5 3 8 21 7 11 10 20 20 18 13 15 15 21 19 19 18 17 16
30 33 31 31 34 34 31 25 19 20 18 23 7 15 36 40 27 24 32 21 17 13 10 9 10 9 9 11 9 14 4 6 10 8 7 7 11 23 21 15 14 17 16 19 17 19 20 20 20
31 34 31 33 36 34 34 30 20 13 2 9 7 3 14 5 31 40 23 26 18 18 13 10 10 9 10 10 11 10 11 2 13 21 6 8 9 20 16 12 11 16 16 16 13 16 19 19 21
29 41 34 28 29 32 18 11 4 8 10 6 12 10 13 18 23 30 10 25 20 19 15 11 11 8 7 7 6 6 8 14 9 16 4 17 6 8 16 20 10 13 19 15 11 13 15 11 18
29 35 36 38 38 33 21 21 24 17 10 9 12 12 13 13 6 6 15 25 19 11 15 13 11 9 7 8 5 5 7 11 14 26 7 15 9 5 8 21 23 12 18 14 10 17 15 13 13
31 32 37 38 35 32 21 21 8 14 11 14 13 10 11 11 10 11 12 15 16 24 17 13 11 10 8 8 9 6 6 6 8 13 7 11 13 5 6 11 23 16 17 16 14 15 19 9 17
32 30 33 36 40 35 21 21 12 9 10 11 11 8 9 9 11 12 13 10 16 13 15 20 18 10 9 9 9 8 6 5 6 7 8 1 5 8 19 4 19 5 20 16 14 13 16 8 12
Wind_Direction
129 145 143 145 121 98 27 182 265 68 94 56 40 39 31 343 136 86 109 103 105 102 102 100 77 67 61 53 48 23 19 24 28 30 32 30 40 51 53 51 50 46 47 46 50 49 45 40 38
134 145 156 115 116 105 313 226 17 135 70 51 44 25 15 48 77 94 100 106 101 104 100 100 92 76 71 61 76 45 35 33 31 48 34 42 46 58 68 65 63 60 57 54 53 48 43 35 47
197 170 112 94 108 178 208 185 134 114 75 67 43 20 66 85 96 95 106 113 103 98 90 93 92 82 78 69 63 51 48 42 32 36 52 55 55 63 61 59 64 68 103 105 119 120 141 160 137
160 157 123 81 340 226 194 144 111 98 71 60 65 61 73 80 90 99 109 92 89 90 90 95 94 84 80 69 64 54 39 41 40 51 52 50 60 69 67 71 77 74 97 119 122 139 150 155 107
159 146 85 85 42 220 167 113 203 105 48 55 80 91 78 82 97 100 94 96 100 90 94 97 96 91 94 89 87 98 22 30 14 27 30 40 79 93 82 79 75 86 105 111 109 104 112 119 119
204 171 260 35 78 154 218 239 197 65 66 73 89 84 83 96 108 98 93 102 96 98 90 98 102 106 116 110 125 136 139 142 139 146 131 130 120 106 95 86 79 99 106 104 112 107 107 117 124
203 224 300 61 103 132 239 232 213 63 89 93 93 99 95 113 104 100 100 87 98 94 95 105 107 116 120 122 124 127 131 130 132 132 130 122 130 121 97 98 96 100 105 105 104 104 105 115 120
191 245 315 91 104 16 78 18 210 200 137 107 96 120 117 113 108 90 75 121 107 104 101 101 107 116 115 122 127 127 127 126 126 127 126 116 121 121 112 115 110 106 108 107 104 105 110 111 114
218 271 294 19 96 92 90 89 237 213 147 169 98 116 107 117 103 97 102 70 151 105 102 92 90 107 104 115 130 142 139 132 122 126 124 126 114 124 132 119 118 116 117 111 99 104 121 139 123
296 289 300 358 82 102 103 218 243 249 106 130 103 107 112 117 102 97 92 126 104 94 72 90 101 110 118 106 116 103 137 145 140 123 130 137 126 122 123 126 127 126 128 118 102 95 126 137 135
267 321 313 31 69 99 104 247 293 96 85 108 114 117 126 120 117 99 107 128 112 96 97 105 105 115 129 101 123 113 125 140 139 141 131 141 115 119 131 135 129 160 152 153 140 125 136 135 160
298 304 12 44 75 91 107 347 271 237 178 101 117 121 122 127 120 117 124 130 90 77 81 87 57 135 137 118 121 115 122 129 131 154 107 133 142 159 139 154 133 110 86 159 165 145 130 143 164
323 301 27 55 86 83 90 93 97 220 201 94 120 127 126 125 119 109 102 105 96 97 86 90 94 127 154 152 144 135 121 121 109 140 159 134 129 149 132 164 176 150 126 129 104 128 158 165 178
298 301 16 26 55 89 87 87 94 129 201 178 129 133 132 128 113 104 100 95 86 92 99 80 54 350 271 95 63 83 140 109 122 111 141 132 115 278 214 161 142 150 126 121 137 153 137 154 158
271 295 50 72 85 68 74 82 47 72 130 138 138 137 136 133 120 111 107 101 93 91 85 80 74 70 270 53 84 170 275 208 63 101 159 126 78 104 118 135 152 162 161 171 186 155 145 157 142
259 275 268 227 104 57 51 98 65 115 129 137 138 140 139 132 124 117 115 105 107 87 88 102 103 92 98 107 267 56 239 186 106 106 121 160 175 131 137 134 148 178 178 156 133 151 148 145 143
254 263 256 275 140 127 303 4 318 296 121 135 143 142 140 134 127 125 120 118 120 106 94 85 94 101 102 130 45 82 99 159 78 98 103 105 151 177 186 129 150 114 158 158 167 175 174 174 207
254 253 249 235 249 269 282 312 94 134 127 137 148 145 141 139 135 144 134 121 122 116 107 276 94 94 96 128 94 75 64 150 97 93 107 107 125 159 199 193 224 205 203 134 142 150 160 157 126
234 258 250 267 255 184 260 254 139 134 134 139 147 154 150 143 134 132 145 133 123 126 120 186 108 104 78 129 106 125 95 97 82 97 108 91 134 135 180 192 116 190 186 178 179 177 171 190 138
234 256 260 255 269 293 279 257 285 222 173 175 154 159 162 147 138 139 142 147 135 130 140 155 123 116 119 155 182 158 78 103 89 93 87 113 81 129 165 190 72 136 171 178 190 173 205 200 274
229 240 255 258 258 292 258 263 268 234 182 257 227 229 222 179 153 143 143 154 149 139 144 153 139 125 157 156 187 309 359 59 70 99 101 112 107 129 170 144 47 152 184 209 181 174 209 236 190
238 237 269 234 239 252 177 260 240 182 212 200 201 196 228 227 160 149 152 164 169 153 146 149 150 133 159 197 156 134 92 85 106 120 82 109 133 135 150 126 127 38 314 202 199 192 227 221 232
240 237 257 247 262 258 254 259 265 224 233 242 234 183 236 224 164 157 155 152 184 162 152 153 158 144 142 161 255 113 133 327 259 55 65 125 192 345 166 95 78 100 56 162 176 232 237 269 258
235 242 258 257 255 255 257 259 260 262 258 210 253 162 234 210 215 170 163 157 166 159 155 151 159 154 146 142 309 146 53 5 327 169 55 99 71 161 145 136 77 100 98 158 189 217 237 246 253
237 243 245 247 246 252 255 262 274 262 295 260 253 199 181 212 232 197 174 160 157 153 151 158 154 153 148 145 139 140 82 83 308 58 18 54 279 194 166 109 94 123 115 158 144 163 217 229 233
239 239 243 245 245 252 254 264 262 253 83 294 289 86 122 211 231 213 167 168 159 156 153 156 163 159 150 144 142 139 139 56 283 250 353 19 60 204 143 100 71 131 126 126 89 115 168 184 207
240 238 246 251 253 251 255 266 248 251 288 349 281 289 295 289 169 178 208 170 168 163 157 161 170 188 186 168 153 141 135 149 131 160 82 282 39 338 283 251 101 112 158 129 96 123 137 54 231
251 238 242 243 246 250 254 249 256 252 279 287 280 286 299 312 281 262 247 254 173 189 164 162 169 182 204 228 217 171 150 149 158 229 326 294 332 7 2 248 231 110 156 137 94 170 150 123 137
240 246 241 243 247 251 251 258 258 256 287 278 281 300 306 301 291 276 268 270 258 244 237 177 169 181 208 227 235 229 178 159 150 158 321 298 301 41 48 121 192 158 159 159 145 162 270 96 173
242 247 244 243 244 252 263 267 283 294 298 295 285 301 320 311 309 304 274 275 256 251 264 251 249 180 198 196 193 208 231 180 165 158 153 78 331 311 282 80 212 79 180 171 159 153 174 104 142